Location: Newark
(44.3449°N, 4.8694°E)
Time: 15:16:18
(UTC+00:00)

Envisat - Pass Details

Date: 27 January 2020
Orbit: 764 x 766 km, 98.1° (Epoch: 17 February)

Event Time Altitude Azimuth Distance (km) Brightness Sun altitude
Rises 17:52:49 0° 180° (S) 3,218 6.4 -12.7°
Reaches altitude 10° 17:55:11 10° 185° (S) 2,296 5.7 -13.1°
Maximum altitude 18:00:05 50° 261° (W) 975 4.0 -14.0°
Drops below altitude 10° 18:05:02 10° 336° (NNW) 2,312 5.6 -14.8°
Sets 18:07:25 0° 342° (NNW) 3,243 6.3 -15.3°
